| time (UTC) | temp F | wind direction | speed MPH | gust MPH | rain 1hr in | rain 24hr in | rain mn in | humidity % | barometer mb |
| 20260906055546 | 68 | 0.0 | 0.0 | 0.00 | 0.62 | 0.00 | 94 | 1012.9 | |
| 20260906055047 | 68 | 0.0 | 0.0 | 0.00 | 0.62 | 0.00 | 94 | 1012.8 | |
| 20260906054601 | 68 | 0.0 | 0.0 | 0.00 | 0.62 | 0.00 | 94 | 1012.9 | |
| 20260906054046 | 68 | 0.0 | 0.0 | 0.00 | 0.62 | 0.00 | 94 | 1012.8 | |
| 20260906053545 | 68 | 0.0 | 0.0 | 0.00 | 0.62 | 0.00 | 94 | 1012.9 | |
| 20260906053058 | 68 | 0.0 | 0.0 | 0.00 | 0.62 | 0.00 | 94 | 1012.9 | |
| 20260906052546 | 68 | 0.0 | 0.0 | 0.00 | 0.62 | 0.00 | 94 | 1012.9 | |
| 20260906052046 | 68 | 0.0 | 0.0 | 0.00 | 0.62 | 0.00 | 94 | 1013.0 | |
| 20260906051557 | 68 | 0.0 | 0.0 | 0.00 | 0.62 | 0.00 | 94 | 1013.1 | |
| 20260906051045 | 68 | 0.0 | 0.0 | 0.00 | 0.62 | 0.00 | 94 | 1013.1 | |
| 20260906050551 | 68 | 0.0 | 0.0 | 0.00 | 0.62 | 0.00 | 94 | 1013.1 | |
| 20260906050116 | 69 | 0.0 | 0.0 | 0.00 | 0.62 | 0.00 | 94 | 1013.1 | |
| 20260906045544 | 69 | 0.0 | 0.0 | 0.00 | 0.62 | 0.00 | 94 | 1013.0 | |
| 20260906045045 | 69 | 0.0 | 0.0 | 0.00 | 0.62 | 0.00 | 94 | 1013.0 | |
| 20260906044603 | 69 | 0.0 | 0.0 | 0.00 | 0.62 | 0.00 | 94 | 1013.0 | |
| 20260906044045 | 69 | 0.0 | 0.0 | 0.00 | 0.62 | 0.00 | 94 | 1013.0 | |
| 20260906043545 | 69 | 0.0 | 0.0 | 0.00 | 0.62 | 0.00 | 94 | 1013.0 | |
| 20260906043109 | 69 | 0.0 | 0.0 | 0.00 | 0.62 | 0.00 | 94 | 1013.0 | |
| 20260906042545 | 69 | 0.0 | 0.0 | 0.00 | 0.62 | 0.00 | 94 | 1013.2 | |
| 20260906042046 | 69 | 0.0 | 0.0 | 0.00 | 0.62 | 0.00 | 94 | 1013.4 | |
| 20260906041604 | 69 | 0.0 | 0.0 | 0.00 | 0.62 | 0.00 | 94 | 1013.3 | |
| 20260906041049 | 69 | 0.0 | 0.0 | 0.00 | 0.62 | 0.00 | 94 | 1013.3 | |
| 20260906040549 | 69 | 0.0 | 0.0 | 0.00 | 0.62 | 0.00 | 94 | 1013.4 | |
| 20260906040119 | 69 | 0.0 | 0.0 | 0.00 | 0.62 | 0.00 | 94 | 1013.4 | |
| 20260906035549 | 70 | 0.0 | 0.0 | 0.00 | 0.62 | 0.62 | 94 | 1013.4 | |
| 20260906035049 | 70 | 0.0 | 0.0 | 0.00 | 0.62 | 0.62 | 94 | 1013.4 | |
| 20260906034607 | 70 | 0.0 | 0.0 | 0.00 | 0.62 | 0.62 | 94 | 1013.5 | |
| 20260906034048 | 70 | 0.0 | 0.0 | 0.00 | 0.62 | 0.62 | 94 | 1013.5 | |
| 20260906033548 | 70 | 0.0 | 0.0 | 0.00 | 0.62 | 0.62 | 94 | 1013.3 | |
| 20260906033105 | 70 | 0.0 | 0.0 | 0.00 | 0.62 | 0.62 | 94 | 1013.2 | |
| 20260906032552 | 70 | 0.0 | 0.0 | 0.00 | 0.62 | 0.62 | 94 | 1013.2 | |
| 20260906032049 | 70 | 0.0 | 0.0 | 0.01 | 0.62 | 0.62 | 94 | 1013.3 | |
| 20260906031610 | 70 | 0.0 | 0.0 | 0.01 | 0.62 | 0.62 | 94 | 1013.3 | |
| 20260906031049 | 70 | 0.0 | 0.0 | 0.01 | 0.62 | 0.62 | 94 | 1013.4 | |
| 20260906030546 | 70 | 0.0 | 0.0 | 0.01 | 0.62 | 0.62 | 94 | 1013.2 | |
| 20260906030110 | 70 | 0.0 | 0.0 | 0.01 | 0.62 | 0.62 | 94 | 1013.2 | |
| 20260906025549 | 70 | 0.0 | 0.0 | 0.02 | 0.62 | 0.62 | 94 | 1013.1 | |
| 20260906025051 | 70 | 0.0 | 0.0 | 0.02 | 0.62 | 0.62 | 94 | 1013.0 | |
| 20260906024608 | 70 | 0.0 | 0.0 | 0.02 | 0.62 | 0.62 | 94 | 1013.2 | |
| 20260906024052 | 71 | 0.0 | 0.0 | 0.03 | 0.62 | 0.62 | 94 | 1013.1 | |
| 20260906023549 | 71 | 0.0 | 0.0 | 0.03 | 0.62 | 0.62 | 93 | 1013.0 | |
| 20260906023131 | 71 | 0.0 | 0.0 | 0.04 | 0.62 | 0.62 | 93 | 1013.1 | |
| 20260906022551 | 71 | 0.0 | 0.0 | 0.04 | 0.62 | 0.62 | 93 | 1013.0 | |
| 20260906022048 | 71 | 0.0 | 0.0 | 0.04 | 0.61 | 0.61 | 94 | 1013.0 | |
| 20260906021605 | 71 | 0.0 | 0.0 | 0.05 | 0.61 | 0.61 | 93 | 1013.1 | |
| 20260906021049 | 71 | 0.0 | 0.0 | 0.05 | 0.61 | 0.61 | 93 | 1013.3 | |
| 20260906020549 | 71 | 0.0 | 0.0 | 0.06 | 0.61 | 0.61 | 93 | 1013.2 | |
| 20260906020108 | 71 | 0.0 | 0.0 | 0.07 | 0.61 | 0.61 | 93 | 1013.1 | |
| 20260906015550 | 72 | 0.0 | 0.0 | 0.06 | 0.60 | 0.60 | 93 | 1012.9 | |
| 20260906015049 | 72 | 0.0 | 0.0 | 0.07 | 0.60 | 0.60 | 93 | 1013.0 | |
| 20260906014623 | 72 | 0.0 | 0.0 | 0.08 | 0.60 | 0.60 | 93 | 1012.9 | |
| 20260906014048 | 72 | 0.0 | 0.0 | 0.08 | 0.58 | 0.58 | 93 | 1012.9 | |
| 20260906013548 | 72 | 0.0 | 0.0 | 0.09 | 0.58 | 0.58 | 93 | 1012.9 | |
| 20260906013108 | 72 | 0.0 | 0.0 | 0.09 | 0.58 | 0.58 | 93 | 1012.7 | |
| 20260906012556 | 72 | 0.0 | 0.0 | 0.10 | 0.58 | 0.58 | 93 | 1012.7 | |
| 20260906012049 | 72 | 0.0 | 0.0 | 0.10 | 0.57 | 0.57 | 93 | 1012.7 | |
| 20260906011606 | 72 | 0.0 | 0.0 | 0.10 | 0.56 | 0.56 | 93 | 1012.6 | |
| 20260906011044 | 73 | 0.0 | 0.0 | 0.11 | 0.56 | 0.56 | 93 | 1012.5 | |
| 20260906010544 | 73 | 0.0 | 0.0 | 0.11 | 0.55 | 0.55 | 93 | 1012.3 | |
| 20260906010107 | 73 | 0.0 | 0.0 | 0.11 | 0.54 | 0.54 | 93 | 1012.1 | |
| 20260906005544 | 73 | 0.0 | 0.0 | 0.12 | 0.54 | 0.54 | 93 | 1012.1 | |
| 20260906005047 | 73 | 0.0 | 0.0 | 0.12 | 0.52 | 0.52 | 93 | 1011.9 | |
| 20260906004614 | 73 | 0.0 | 0.0 | 0.12 | 0.52 | 0.52 | 93 | 1011.9 | |
| 20260906004051 | 73 | 0.0 | 0.0 | 0.12 | 0.51 | 0.51 | 93 | 1012.0 | |
| 20260906003547 | 73 | 0.0 | 0.0 | 0.12 | 0.50 | 0.50 | 93 | 1011.8 | |
| 20260906003059 | 73 | 0.0 | 0.0 | 0.12 | 0.49 | 0.49 | 93 | 1011.9 | |
| 20260906002546 | 73 | 0.0 | 0.0 | 0.12 | 0.48 | 0.48 | 92 | 1011.9 | |
| 20260906002045 | 73 | 0.0 | 0.0 | 0.12 | 0.47 | 0.47 | 93 | 1011.9 | |
| 20260906001605 | 73 | 0.0 | 0.0 | 0.13 | 0.46 | 0.46 | 93 | 1011.8 | |
| 20260906001045 | 73 | 0.0 | 0.0 | 0.13 | 0.45 | 0.45 | 93 | 1011.7 | |
| 20260906000544 | 73 | 0.0 | 0.0 | 0.13 | 0.44 | 0.44 | 92 | 1011.7 | |
| 20260906000111 | 73 | 0.0 | 0.0 | 0.13 | 0.43 | 0.43 | 92 | 1011.8 | |
| 20260905235544 | 74 | 0.0 | 0.0 | 0.13 | 0.42 | 0.42 | 92 | 1011.7 | |
| 20260905235047 | 74 | 0.0 | 0.0 | 0.14 | 0.41 | 0.41 | 92 | 1011.8 | |
| 20260905234605 | 74 | 0.0 | 0.0 | 0.14 | 0.40 | 0.40 | 92 | 1011.8 | |
| 20260905234048 | 74 | 0.0 | 0.0 | 0.14 | 0.39 | 0.39 | 92 | 1011.7 | |
| 20260905233544 | 74 | 0.0 | 0.0 | 0.15 | 0.38 | 0.38 | 92 | 1011.7 | |
| 20260905233109 | 74 | 0.0 | 0.0 | 0.15 | 0.37 | 0.37 | 92 | 1011.7 | |
| 20260905232545 | 74 | 0.0 | 0.0 | 0.15 | 0.36 | 0.36 | 92 | 1011.8 | |
| 20260905232046 | 74 | 0.0 | 0.0 | 0.15 | 0.34 | 0.34 | 92 | 1011.7 | |
| 20260905231559 | 74 | 0.0 | 0.0 | 0.15 | 0.33 | 0.33 | 92 | 1011.7 | |
| 20260905231046 | 74 | 0.0 | 0.0 | 0.16 | 0.32 | 0.32 | 91 | 1011.7 | |
| 20260905230546 | 74 | 0.0 | 0.0 | 0.16 | 0.31 | 0.31 | 91 | 1011.7 | |
| 20260905230110 | 74 | 0.0 | 0.0 | 0.17 | 0.30 | 0.30 | 91 | 1011.7 | |
| 20260905225547 | 74 | 0.0 | 0.0 | 0.16 | 0.28 | 0.28 | 91 | 1011.6 | |
| 20260905225049 | 74 | 0.0 | 0.0 | 0.16 | 0.27 | 0.27 | 91 | 1011.6 | |
| 20260905224608 | 74 | 0.0 | 0.0 | 0.16 | 0.26 | 0.26 | 90 | 1011.6 | |
| 20260905224047 | 74 | 0.0 | 0.0 | 0.15 | 0.25 | 0.25 | 89 | 1011.7 | |
| 20260905223545 | 75 | 0.0 | 0.0 | 0.13 | 0.23 | 0.23 | 89 | 1011.6 | |
| 20260905223100 | 75 | 0.0 | 0.0 | 0.12 | 0.22 | 0.22 | 88 | 1011.6 | |
| 20260905222546 | 75 | 0.0 | 0.0 | 0.11 | 0.21 | 0.21 | 88 | 1011.6 | |
| 20260905222044 | 75 | 0.0 | 0.0 | 0.09 | 0.19 | 0.19 | 87 | 1011.6 | |
| 20260905221606 | 75 | 0.0 | 0.0 | 0.08 | 0.18 | 0.18 | 86 | 1011.5 | |
| 20260905221046 | 76 | 0.0 | 0.0 | 0.06 | 0.16 | 0.16 | 86 | 1011.4 | |
| 20260905220545 | 76 | 0.0 | 0.0 | 0.05 | 0.15 | 0.15 | 85 | 1011.5 | |
| 20260905220123 | 77 | 0.0 | 0.0 | 0.03 | 0.13 | 0.13 | 84 | 1011.7 | |
| 20260905215547 | 77 | 0.0 | 0.0 | 0.02 | 0.12 | 0.12 | 84 | 1011.7 | |
| 20260905215049 | 78 | 0.0 | 0.0 | 0.01 | 0.11 | 0.11 | 84 | 1011.8 | |
| 20260905214608 | 78 | 0.0 | 0.0 | 0.00 | 0.10 | 0.10 | 83 | 1011.3 | |
| 20260905214048 | 78 | 0.0 | 0.0 | 0.00 | 0.10 | 0.10 | 83 | 1011.4 | |
| 20260905213546 | 78 | 0.0 | 0.0 | 0.00 | 0.10 | 0.10 | 83 | 1011.3 | |
| 20260905213057 | 78 | 0.0 | 0.0 | 0.00 | 0.10 | 0.10 | 83 | 1011.2 | |
| 20260905212545 | 78 | 0.0 | 0.0 | 0.00 | 0.10 | 0.10 | 83 | 1011.1 | |
| 20260905212045 | 78 | 0.0 | 0.0 | 0.00 | 0.10 | 0.10 | 84 | 1010.9 | |
| 20260905211610 | 78 | 0.0 | 0.0 | 0.00 | 0.10 | 0.10 | 84 | 1010.9 | |
| 20260905211047 | 78 | 0.0 | 0.0 | 0.00 | 0.10 | 0.10 | 85 | 1011.0 | |
| 20260905210550 | 78 | 0.0 | 0.0 | 0.00 | 0.10 | 0.10 | 85 | 1010.9 | |
| 20260905205545 | 79 | 0.0 | 0.0 | 0.00 | 0.36 | 0.10 | 82 | 1010.8 | |
| 20260905205045 | 79 | 0.0 | 0.0 | 0.00 | 0.36 | 0.10 | 81 | 1010.8 | |
| 20260905204608 | 79 | 0.0 | 0.0 | 0.00 | 0.36 | 0.10 | 81 | 1010.8 | |
| 20260905204046 | 79 | 0.0 | 0.0 | 0.00 | 0.36 | 0.10 | 82 | 1010.7 | |
| 20260905203547 | 79 | 0.0 | 0.0 | 0.00 | 0.36 | 0.10 | 83 | 1010.9 | |
| 20260905203103 | 79 | 0.0 | 0.0 | 0.00 | 0.36 | 0.10 | 82 | 1010.9 | |
| 20260905202548 | 79 | 0.0 | 0.0 | 0.00 | 0.36 | 0.10 | 83 | 1010.9 | |
| 20260905202047 | 79 | 0.0 | 0.0 | 0.00 | 0.36 | 0.10 | 82 | 1011.0 | |
| 20260905201604 | 79 | 0.0 | 0.0 | 0.00 | 0.36 | 0.10 | 82 | 1010.9 | |
| 20260905201043 | 79 | 0.0 | 0.0 | 0.00 | 0.36 | 0.10 | 76 | 1010.8 | |
| 20260905200548 | 79 | 0.0 | 0.0 | 0.00 | 0.36 | 0.10 | 74 | 1010.9 | |
| 20260905200059 | 79 | 0.0 | 0.0 | 0.00 | 0.36 | 0.10 | 77 | 1010.9 | |
| 20260905195543 | 80 | 0.0 | 0.0 | 0.00 | 0.36 | 0.10 | 75 | 1010.8 | |
| 20260905195043 | 80 | 0.0 | 0.0 | 0.00 | 0.36 | 0.10 | 74 | 1010.9 | |
| 20260905194604 | 80 | 0.0 | 0.0 | 0.00 | 0.36 | 0.10 | 73 | 1011.1 | |
| 20260905194047 | 80 | 0.0 | 0.0 | 0.00 | 0.36 | 0.10 | 76 | 1011.1 | |
| 20260905193547 | 80 | 0.0 | 0.0 | 0.00 | 0.36 | 0.10 | 73 | 1011.2 | |
| 20260905193059 | 80 | 0.0 | 0.0 | 0.00 | 0.36 | 0.10 | 74 | 1011.3 | |
| 20260905192547 | 80 | 0.0 | 0.0 | 0.00 | 0.36 | 0.10 | 77 | 1011.2 | |
| 20260905192043 | 80 | 0.0 | 0.0 | 0.00 | 0.36 | 0.10 | 77 | 1011.2 | |
| 20260905191600 | 79 | 0.0 | 0.0 | 0.00 | 0.36 | 0.10 | 77 | 1011.3 | |
| 20260905191047 | 80 | 0.0 | 0.0 | 0.00 | 0.36 | 0.10 | 77 | 1011.3 | |
| 20260905190544 | 80 | 0.0 | 0.0 | 0.00 | 0.36 | 0.10 | 81 | 1011.4 | |
| 20260905190113 | 80 | 0.0 | 0.0 | 0.00 | 0.36 | 0.10 | 77 | 1011.5 | |
| 20260905185549 | 80 | 0.0 | 0.0 | 0.00 | 0.36 | 0.10 | 77 | 1011.6 | |
| 20260905185044 | 80 | 0.0 | 0.0 | 0.00 | 0.36 | 0.10 | 78 | 1011.6 | |
| 20260905184605 | 80 | 0.0 | 0.0 | 0.00 | 0.36 | 0.10 | 79 | 1011.5 | |
| 20260905184047 | 81 | 0.0 | 0.0 | 0.00 | 0.36 | 0.10 | 79 | 1011.5 | |
| 20260905183548 | 80 | 0.0 | 0.0 | 0.00 | 0.36 | 0.10 | 87 | 1011.6 | |
| 20260905183126 | 78 | 0.0 | 0.0 | 0.00 | 0.36 | 0.10 | 89 | 1011.6 | |
| 20260905182543 | 77 | 0.0 | 0.0 | 0.01 | 0.36 | 0.10 | 86 | 1011.6 | |
| 20260905182048 | 77 | 0.0 | 0.0 | 0.01 | 0.36 | 0.10 | 89 | 1011.4 | |
| 20260905181605 | 77 | 0.0 | 0.0 | 0.02 | 0.36 | 0.10 | 90 | 1011.5 | |
| 20260905181044 | 77 | 0.0 | 0.0 | 0.02 | 0.36 | 0.10 | 90 | 1011.5 | |
| 20260905180547 | 77 | 0.0 | 0.0 | 0.03 | 0.36 | 0.10 | 93 | 1011.5 | |
| 20260905180106 | 76 | 0.0 | 0.0 | 0.03 | 0.36 | 0.10 | 93 | 1011.6 | |
| 20260905175547 | 75 | 0.0 | 0.0 | 0.04 | 0.36 | 0.10 | 93 | 1011.6 | |
| 20260905175047 | 76 | 0.0 | 0.0 | 0.05 | 0.36 | 0.10 | 94 | 1011.6 | |
| 20260905174605 | 75 | 0.0 | 0.0 | 0.06 | 0.36 | 0.10 | 94 | 1011.6 | |
| 20260905174044 | 76 | 0.0 | 0.0 | 0.07 | 0.36 | 0.10 | 95 | 1011.7 | |
| 20260905173548 | 75 | 0.0 | 0.0 | 0.07 | 0.36 | 0.10 | 95 | 1011.7 | |
| 20260905173104 | 75 | 0.0 | 0.0 | 0.08 | 0.36 | 0.10 | 95 | 1011.8 | |
| 20260905172551 | 75 | 0.0 | 0.0 | 0.07 | 0.35 | 0.09 | 95 | 1011.8 | |
| 20260905172048 | 75 | 0.0 | 0.0 | 0.08 | 0.35 | 0.09 | 95 | 1012.0 | |
| 20260905171608 | 74 | 0.0 | 0.0 | 0.07 | 0.34 | 0.08 | 95 | 1012.0 | |
| 20260905171047 | 74 | 0.0 | 0.0 | 0.07 | 0.34 | 0.08 | 95 | 1012.0 | |
| 20260905170547 | 75 | 0.0 | 0.0 | 0.06 | 0.33 | 0.07 | 94 | 1012.0 | |
| 20260905170104 | 75 | 0.0 | 0.0 | 0.06 | 0.33 | 0.07 | 93 | 1012.2 | |
| 20260905165548 | 75 | 0.0 | 0.0 | 0.05 | 0.32 | 0.06 | 91 | 1012.4 | |
| 20260905165049 | 76 | 0.0 | 0.0 | 0.04 | 0.31 | 0.05 | 90 | 1012.6 | |
| 20260905164608 | 76 | 0.0 | 0.0 | 0.03 | 0.30 | 0.04 | 89 | 1012.9 | |
| 20260905164047 | 76 | 0.0 | 0.0 | 0.02 | 0.29 | 0.03 | 89 | 1013.2 | |
| 20260905163545 | 76 | 0.0 | 0.0 | 0.02 | 0.29 | 0.03 | 88 | 1013.5 | |
| 20260905163109 | 76 | 0.0 | 0.0 | 0.01 | 0.28 | 0.02 | 88 | 1013.5 | |
| 20260905162546 | 77 | 0.0 | 0.0 | 0.01 | 0.28 | 0.02 | 88 | 1013.5 | |
| 20260905162046 | 77 | 0.0 | 0.0 | 0.00 | 0.27 | 0.01 | 88 | 1013.5 | |
| 20260905161608 | 77 | 0.0 | 0.0 | 0.00 | 0.27 | 0.01 | 87 | 1013.5 | |
| 20260905161045 | 77 | 0.0 | 0.0 | 0.00 | 0.27 | 0.01 | 87 | 1013.5 | |
| 20260905160545 | 77 | 0.0 | 0.0 | 0.00 | 0.27 | 0.01 | 87 | 1013.6 | |
| 20260905160123 | 77 | 0.0 | 0.0 | 0.00 | 0.27 | 0.01 | 87 | 1013.7 | |
| 20260905155547 | 77 | 0.0 | 0.0 | 0.00 | 0.27 | 0.01 | 87 | 1013.6 | |
| 20260905155045 | 77 | 0.0 | 0.0 | 0.00 | 0.27 | 0.01 | 86 | 1013.5 | |
| 20260905154607 | 77 | 0.0 | 0.0 | 0.00 | 0.27 | 0.01 | 86 | 1013.5 | |
| 20260905154046 | 76 | 0.0 | 0.0 | 0.00 | 0.27 | 0.01 | 85 | 1013.4 | |
| 20260905153545 | 77 | 0.0 | 0.0 | 0.00 | 0.27 | 0.01 | 87 | 1013.3 | |
| 20260905153106 | 77 | 0.0 | 0.0 | 0.00 | 0.27 | 0.01 | 86 | 1013.1 | |
| 20260905152547 | 77 | 0.0 | 0.0 | 0.00 | 0.27 | 0.01 | 85 | 1013.2 | |
| 20260905152046 | 76 | 0.0 | 0.0 | 0.00 | 0.27 | 0.01 | 85 | 1013.0 | |
| 20260905151611 | 77 | 0.0 | 0.0 | 0.00 | 0.27 | 0.01 | 86 | 1013.1 | |
| 20260905151046 | 77 | 0.0 | 0.0 | 0.00 | 0.27 | 0.01 | 84 | 1013.3 | |
| 20260905150545 | 77 | 0.0 | 0.0 | 0.00 | 0.27 | 0.01 | 86 | 1013.4 | |
| 20260905150106 | 77 | 0.0 | 0.0 | 0.00 | 0.27 | 0.01 | 85 | 1013.4 | |
| 20260905145546 | 77 | 0.0 | 0.0 | 0.00 | 0.27 | 0.01 | 85 | 1013.3 | |
| 20260905145048 | 76 | 0.0 | 0.0 | 0.00 | 0.27 | 0.01 | 85 | 1013.4 | |
| 20260905144604 | 77 | 0.0 | 0.0 | 0.00 | 0.27 | 0.01 | 85 | 1013.3 | |
| 20260905144045 | 77 | 0.0 | 0.0 | 0.00 | 0.27 | 0.01 | 84 | 1013.4 | |
| 20260905143546 | 77 | 0.0 | 0.0 | 0.00 | 0.27 | 0.01 | 84 | 1013.5 | |
| 20260905143114 | 77 | 0.0 | 0.0 | 0.00 | 0.27 | 0.01 | 85 | 1013.4 | |
| 20260905142546 | 77 | 0.0 | 0.0 | 0.00 | 0.27 | 0.01 | 86 | 1013.3 | |
| 20260905142046 | 77 | 0.0 | 0.0 | 0.00 | 0.27 | 0.01 | 84 | 1013.4 | |
| 20260905141606 | 77 | 0.0 | 0.0 | 0.00 | 0.27 | 0.01 | 85 | 1013.3 | |
| 20260905141045 | 77 | 0.0 | 0.0 | 0.00 | 0.27 | 0.01 | 86 | 1013.4 | |
| 20260905140545 | 77 | 0.0 | 0.0 | 0.00 | 0.27 | 0.01 | 86 | 1013.3 | |
| 20260905140110 | 76 | 0.0 | 0.0 | 0.00 | 0.27 | 0.01 | 86 | 1013.1 | |
| 20260905135548 | 76 | 0.0 | 0.0 | 0.00 | 0.27 | 0.01 | 87 | 1012.9 | |
| 20260905135048 | 76 | 0.0 | 0.0 | 0.00 | 0.27 | 0.01 | 87 | 1012.9 | |
| 20260905134606 | 75 | 0.0 | 0.0 | 0.00 | 0.27 | 0.01 | 88 | 1012.7 | |
| 20260905134047 | 75 | 0.0 | 0.0 | 0.00 | 0.27 | 0.01 | 89 | 1012.7 | |
| 20260905133548 | 75 | 0.0 | 0.0 | 0.00 | 0.27 | 0.01 | 88 | 1012.7 | |
| 20260905133108 | 75 | 0.0 | 0.0 | 0.00 | 0.27 | 0.01 | 89 | 1012.7 | |
| 20260905132551 | 74 | 0.0 | 0.0 | 0.00 | 0.27 | 0.01 | 92 | 1012.4 | |
| 20260905132048 | 74 | 0.0 | 0.0 | 0.00 | 0.27 | 0.01 | 92 | 1012.5 | |
| 20260905131609 | 73 | 0.0 | 0.0 | 0.00 | 0.27 | 0.01 | 94 | 1012.4 | |
| 20260905131047 | 73 | 0.0 | 0.0 | 0.00 | 0.27 | 0.01 | 96 | 1012.5 | |
| 20260905130545 | 72 | 0.0 | 0.0 | 0.00 | 0.27 | 0.01 | 96 | 1012.6 | |
| 20260905130117 | 71 | 0.0 | 0.0 | 0.00 | 0.27 | 0.01 | 96 | 1012.5 | |
| 20260905125547 | 71 | 0.0 | 0.0 | 0.00 | 0.27 | 0.01 | 96 | 1012.5 | |
| 20260905125047 | 71 | 0.0 | 0.0 | 0.00 | 0.27 | 0.01 | 96 | 1012.5 | |
| 20260905124605 | 71 | 0.0 | 0.0 | 0.00 | 0.27 | 0.01 | 96 | 1012.5 | |
| 20260905124048 | 71 | 0.0 | 0.0 | 0.00 | 0.27 | 0.01 | 96 | 1012.5 | |
| 20260905123547 | 71 | 0.0 | 0.0 | 0.00 | 0.27 | 0.01 | 96 | 1012.5 | |
| 20260905123104 | 71 | 0.0 | 0.0 | 0.00 | 0.27 | 0.01 | 96 | 1012.6 | |
| 20260905122548 | 70 | 0.0 | 0.0 | 0.00 | 0.27 | 0.01 | 96 | 1012.4 | |
| 20260905122045 | 70 | 0.0 | 0.0 | 0.00 | 0.27 | 0.01 | 96 | 1012.3 | |
| 20260905121605 | 70 | 0.0 | 0.0 | 0.00 | 0.27 | 0.01 | 96 | 1012.3 | |
| 20260905121044 | 70 | 0.0 | 0.0 | 0.00 | 0.27 | 0.01 | 96 | 1012.4 | |
| 20260905120551 | 69 | 0.0 | 0.0 | 0.00 | 0.27 | 0.01 | 96 | 1012.4 | |
| 20260905120114 | 69 | 0.0 | 0.0 | 0.00 | 0.27 | 0.01 | 96 | 1012.4 | |
| 20260905115550 | 69 | 0.0 | 0.0 | 0.00 | 0.27 | 0.01 | 95 | 1012.3 | |
| 20260905115047 | 69 | 0.0 | 0.0 | 0.00 | 0.27 | 0.01 | 95 | 1012.3 | |
| 20260905114602 | 69 | 0.0 | 0.0 | 0.00 | 0.27 | 0.01 | 95 | 1012.2 | |
| 20260905114047 | 69 | 0.0 | 0.0 | 0.00 | 0.27 | 0.01 | 95 | 1012.2 | |
| 20260905113547 | 69 | 0.0 | 0.0 | 0.00 | 0.27 | 0.01 | 95 | 1012.1 | |
| 20260905113105 | 68 | 0.0 | 0.0 | 0.00 | 0.27 | 0.01 | 95 | 1012.1 | |
| 20260905112547 | 68 | 0.0 | 0.0 | 0.00 | 0.27 | 0.01 | 95 | 1012.1 | |
| 20260905112048 | 68 | 0.0 | 0.0 | 0.00 | 0.27 | 0.01 | 95 | 1012.1 | |
| 20260905111612 | 68 | 0.0 | 0.0 | 0.00 | 0.27 | 0.01 | 95 | 1012.1 | |
| 20260905111044 | 68 | 0.0 | 0.0 | 0.00 | 0.27 | 0.01 | 95 | 1012.0 | |
| 20260905110549 | 68 | 0.0 | 0.0 | 0.00 | 0.27 | 0.01 | 95 | 1012.1 | |
| 20260905105548 | 68 | 0.0 | 0.0 | 0.00 | 0.27 | 0.01 | 95 | 1011.8 | |
| 20260905105044 | 68 | 0.0 | 0.0 | 0.00 | 0.27 | 0.01 | 95 | 1011.7 | |
| 20260905104600 | 68 | 0.0 | 0.0 | 0.00 | 0.27 | 0.01 | 95 | 1011.5 | |
| 20260905104047 | 68 | 0.0 | 0.0 | 0.00 | 0.27 | 0.01 | 95 | 1011.5 | |
| 20260905103547 | 68 | 0.0 | 0.0 | 0.00 | 0.27 | 0.01 | 95 | 1011.5 | |
| 20260905103106 | 68 | 0.0 | 0.0 | 0.00 | 0.27 | 0.01 | 95 | 1011.4 | |
| 20260905102548 | 68 | 0.0 | 0.0 | 0.00 | 0.27 | 0.01 | 95 | 1011.4 | |
| 20260905102047 | 69 | 0.0 | 0.0 | 0.00 | 0.27 | 0.01 | 95 | 1011.4 | |
| 20260905101606 | 69 | 0.0 | 0.0 | 0.00 | 0.27 | 0.01 | 95 | 1011.5 | |
| 20260905101046 | 69 | 0.0 | 0.0 | 0.00 | 0.27 | 0.01 | 95 | 1011.4 | |
| 20260905100547 | 69 | 0.0 | 0.0 | 0.00 | 0.27 | 0.01 | 95 | 1011.2 | |
| 20260905100100 | 69 | 0.0 | 0.0 | 0.00 | 0.27 | 0.01 | 95 | 1011.1 | |
| 20260905095546 | 69 | 0.0 | 0.0 | 0.00 | 0.27 | 0.01 | 95 | 1011.1 | |
| 20260905095047 | 69 | 0.0 | 0.0 | 0.00 | 0.27 | 0.01 | 95 | 1011.2 | |
| 20260905094556 | 69 | 0.0 | 0.0 | 0.00 | 0.27 | 0.01 | 95 | 1011.2 | |
| 20260905094047 | 69 | 0.0 | 0.0 | 0.00 | 0.27 | 0.01 | 95 | 1011.2 | |
| 20260905093547 | 69 | 0.0 | 0.0 | 0.00 | 0.27 | 0.01 | 95 | 1011.2 | |
| 20260905093105 | 69 | 0.0 | 0.0 | 0.00 | 0.27 | 0.01 | 95 | 1011.1 | |
| 20260905092547 | 69 | 0.0 | 0.0 | 0.00 | 0.27 | 0.01 | 95 | 1011.1 | |
| 20260905092051 | 69 | 0.0 | 0.0 | 0.00 | 0.27 | 0.01 | 94 | 1011.1 | |
| 20260905091559 | 69 | 0.0 | 0.0 | 0.00 | 0.27 | 0.01 | 94 | 1011.1 | |
| 20260905091046 | 69 | 0.0 | 0.0 | 0.00 | 0.27 | 0.01 | 94 | 1011.1 | |
| 20260905090548 | 69 | 0.0 | 0.0 | 0.00 | 0.27 | 0.01 | 94 | 1011.2 | |
| 20260905090059 | 69 | 0.0 | 0.0 | 0.00 | 0.27 | 0.01 | 94 | 1011.2 | |
| 20260905085558 | 69 | 0.0 | 0.0 | 0.00 | 0.27 | 0.01 | 94 | 1011.2 | |
| 20260905085046 | 69 | 0.0 | 0.0 | 0.00 | 0.27 | 0.01 | 94 | 1011.3 | |
| 20260905084615 | 69 | 0.0 | 0.0 | 0.00 | 0.27 | 0.01 | 94 | 1011.3 | |
| 20260905084047 | 69 | 0.0 | 0.0 | 0.00 | 0.27 | 0.01 | 94 | 1011.2 | |
| 20260905083547 | 69 | 0.0 | 0.0 | 0.00 | 0.27 | 0.01 | 94 | 1011.3 | |
| 20260905083104 | 69 | 0.0 | 0.0 | 0.00 | 0.27 | 0.01 | 94 | 1011.3 | |
| 20260905082559 | 69 | 0.0 | 0.0 | 0.00 | 0.27 | 0.01 | 94 | 1011.3 | |
| 20260905082049 | 69 | 0.0 | 0.0 | 0.00 | 0.27 | 0.01 | 94 | 1011.3 | |
| 20260905081604 | 69 | 0.0 | 0.0 | 0.00 | 0.27 | 0.01 | 94 | 1011.4 | |
| 20260905081047 | 69 | 0.0 | 0.0 | 0.00 | 0.27 | 0.01 | 94 | 1011.4 | |
| 20260905080547 | 69 | 0.0 | 0.0 | 0.00 | 0.27 | 0.01 | 94 | 1011.5 | |
| 20260905080101 | 69 | 0.0 | 0.0 | 0.00 | 0.27 | 0.01 | 94 | 1011.6 | |
| 20260905075549 | 69 | 0.0 | 0.0 | 0.00 | 0.27 | 0.01 | 94 | 1011.7 | |
| 20260905075046 | 69 | 0.0 | 0.0 | 0.00 | 0.27 | 0.01 | 94 | 1011.7 | |
| 20260905074604 | 69 | 0.0 | 0.0 | 0.00 | 0.27 | 0.01 | 94 | 1011.8 | |
| 20260905074047 | 69 | 0.0 | 0.0 | 0.01 | 0.27 | 0.01 | 94 | 1011.8 | |
| 20260905073547 | 70 | 0.0 | 0.0 | 0.01 | 0.27 | 0.01 | 94 | 1011.6 | |
| 20260905073108 | 70 | 0.0 | 0.0 | 0.01 | 0.27 | 0.01 | 94 | 1011.7 | |
| 20260905072549 | 70 | 0.0 | 0.0 | 0.01 | 0.27 | 0.01 | 94 | 1011.7 | |
| 20260905072048 | 70 | 0.0 | 0.0 | 0.01 | 0.27 | 0.01 | 94 | 1011.8 | |
| 20260905071601 | 70 | 0.0 | 0.0 | 0.01 | 0.27 | 0.01 | 94 | 1011.8 | |
| 20260905071049 | 70 | 0.0 | 0.0 | 0.01 | 0.27 | 0.01 | 94 | 1011.9 | |
| 20260905070548 | 70 | 0.0 | 0.0 | 0.01 | 0.27 | 0.01 | 94 | 1011.9 | |
| 20260905070110 | 70 | 0.0 | 0.0 | 0.01 | 0.27 | 0.01 | 94 | 1011.8 | |
| 20260905065547 | 70 | 0.0 | 0.0 | 0.01 | 0.28 | 0.01 | 94 | 1011.9 | |
| 20260905065050 | 70 | 0.0 | 0.0 | 0.01 | 0.28 | 0.01 | 94 | 1012.0 | |
| 20260905064049 | 70 | 0.0 | 0.0 | 0.00 | 0.27 | 0.00 | 94 | 1012.1 | |
| 20260905063547 | 70 | 0.0 | 0.0 | 0.00 | 0.27 | 0.00 | 94 | 1012.3 | |
| 20260905063109 | 70 | 0.0 | 0.0 | 0.00 | 0.27 | 0.00 | 94 | 1012.3 | |
| 20260905062549 | 70 | 0.0 | 0.0 | 0.00 | 0.27 | 0.00 | 94 | 1012.3 | |
| 20260905062051 | 70 | 0.0 | 0.0 | 0.00 | 0.27 | 0.00 | 94 | 1012.5 | |
| 20260905061611 | 70 | 0.0 | 0.0 | 0.00 | 0.27 | 0.00 | 94 | 1012.6 | |
| 20260905061050 | 70 | 0.0 | 0.0 | 0.00 | 0.27 | 0.00 | 94 | 1012.8 | |
| 20260905060551 | 70 | 0.0 | 0.0 | 0.00 | 0.27 | 0.00 | 94 | 1012.7 | |
| 20260905060104 | 70 | 0.0 | 0.0 | 0.00 | 0.27 | 0.00 | 94 | 1012.7 |